Frankfort, MI

4:17 AM EDT on April 21, 2018 (GMT -0400)
Frankfort

Weather History for KFKS - July, 2013

Change the Weather History Date:

Wednesday, July 10, 2013

  Actual Average (KMBL) Record (KMBL)
Temperature  
Mean Temperature 66 °F -  
Max Temperature 74 °F 80 °F 93 °F (1948)
Min Temperature 57 °F 59 °F 34 °F (1963)
Cooling Degree Days 1    
Growing Degree Days 16 (Base 50)    
Moisture  
Dew Point 60 °F    
Average Humidity 76    
Maximum Humidity 92    
Minimum Humidity 52    
Precipitation  
Precipitation 0.00 in - - ()
Sea Level Pressure  
Sea Level Pressure 29.86 in    
Wind  
Wind Speed 7 mph (West)    
Max Wind Speed 16 mph    
Max Gust Speed 24 mph    
Visibility 10 miles    
Events      
Averages and records for this station are not official NWS values.
T = Trace of Precipitation, MM = Missing Value Source: NWS Daily Summary

Daily Weather History Graph

Daily Weather History Graph

Search for Another Location

Airport or City:

Astronomy

Jul. 10, 2013 Rise Set
Actual Time 6:09 AM EDT 9:30 PM EDT
Civil Twilight 5:33 AM EDT 10:06 PM EDT
Nautical Twilight 4:46 AM EDT 10:53 PM EDT
Astronomical Twilight 3:47 AM EDT 11:51 PM EDT
Moon 8:37 AM EDT (7/10) 10:30 PM EDT (7/10)
Length of Visible Light 16h 32m
Length of Day
15h 20m
Waxing Crescent, 5% of the Moon is Illuminated
Jul 10
Waxing Crescent
Jul 15
First Quarter
Jul 22
Full
Jul 29
Last Quarter
Aug 6
New

Hourly Weather History & Observations

Time (EDT) Temp. Dew Point Humidity Pressure Visibility Wind Dir Wind Speed Gust Speed Precip Events Conditions
12:14 AM 72.0 °F 68.2 °F 88% 29.78 in 10.0 mi WSW 5.8 mph - N/A   Overcast
12:35 AM 70.0 °F 66.6 °F 89% 29.78 in 10.0 mi SW 4.6 mph - N/A   Mostly Cloudy
12:55 AM 69.8 °F 66.4 °F 89% 29.77 in 10.0 mi SSW 5.8 mph - N/A   Mostly Cloudy
1:15 AM 68.9 °F 65.7 °F 89% 29.77 in 7.0 mi SW 4.6 mph - N/A   Mostly Cloudy
1:35 AM 67.8 °F 65.1 °F 91% 29.77 in 7.0 mi WSW 6.9 mph - N/A   Scattered Clouds
1:55 AM 67.1 °F 64.8 °F 92% 29.76 in 5.0 mi SW 4.6 mph - N/A   Scattered Clouds
2:15 AM 67.8 °F 65.3 °F 92% 29.76 in 7.0 mi West 4.6 mph - N/A   Scattered Clouds
2:35 AM 67.3 °F 64.9 °F 92% 29.76 in 7.0 mi West 4.6 mph - N/A   Scattered Clouds
2:55 AM 67.5 °F 64.6 °F 90% 29.76 in 10.0 mi West 3.5 mph - N/A   Clear
3:15 AM 67.3 °F 64.4 °F 90% 29.76 in 10.0 mi West 5.8 mph - N/A   Clear
3:36 AM 68.9 °F 65.1 °F 88% 29.75 in 10.0 mi West 8.1 mph - N/A   Clear
3:56 AM 70.0 °F 65.5 °F 86% 29.76 in 10.0 mi West 10.4 mph 23.0 mph N/A   Clear
4:16 AM 69.3 °F 65.1 °F 87% 29.76 in 10.0 mi West 8.1 mph - N/A   Clear
4:36 AM 69.3 °F 64.9 °F 86% 29.76 in 10.0 mi West 8.1 mph - N/A   Clear
4:56 AM 68.9 °F 64.6 °F 86% 29.76 in 10.0 mi West 5.8 mph - N/A   Clear
5:17 AM 69.4 °F 65.1 °F 86% 29.77 in 10.0 mi West 8.1 mph - N/A   Clear
5:32 AM 69.1 °F 64.9 °F 87% 29.77 in 10.0 mi West 8.1 mph - N/A   Clear
5:52 AM 68.7 °F 65.1 °F 88% 29.78 in 10.0 mi WNW 9.2 mph - N/A   Clear
6:12 AM 68.4 °F 64.8 °F 88% 29.78 in 10.0 mi WNW 8.1 mph - N/A   Clear
6:32 AM 68.0 °F 64.4 °F 88% 29.79 in 10.0 mi WNW 5.8 mph - N/A   Clear
6:52 AM 67.5 °F 64.4 °F 90% 29.79 in 10.0 mi WNW 5.8 mph - N/A   Clear
7:12 AM 68.2 °F 64.6 °F 88% 29.79 in 10.0 mi West 8.1 mph - N/A   Clear
7:32 AM 68.0 °F 64.4 °F 88% 29.80 in 10.0 mi West 3.5 mph - N/A   Clear
7:52 AM 69.4 °F 64.8 °F 85% 29.80 in 10.0 mi West 6.9 mph - N/A   Mostly Cloudy
8:12 AM 68.4 °F 63.3 °F 84% 29.82 in 10.0 mi WNW 10.4 mph - N/A   Overcast
8:33 AM 69.3 °F 61.5 °F 76% 29.82 in 10.0 mi NW 16.1 mph 21.9 mph N/A   Mostly Cloudy
8:53 AM 68.2 °F 59.9 °F 75% 29.82 in 10.0 mi NNW 13.8 mph 20.7 mph N/A   Overcast
9:13 AM 68.4 °F 59.7 °F 74% 29.83 in 10.0 mi NNW 13.8 mph 21.9 mph N/A   Mostly Cloudy
9:33 AM 68.7 °F 59.7 °F 73% 29.84 in 10.0 mi NNW 10.4 mph 24.2 mph N/A   Scattered Clouds
9:53 AM 67.6 °F 59.7 °F 76% 29.84 in 10.0 mi NW 12.7 mph 19.6 mph N/A   Mostly Cloudy
10:13 AM 66.4 °F 58.8 °F 77% 29.85 in 10.0 mi NW 13.8 mph 18.4 mph N/A   Overcast
10:33 AM 68.2 °F 59.0 °F 72% 29.86 in 10.0 mi NNW 9.2 mph 19.6 mph N/A   Scattered Clouds
10:53 AM 68.5 °F 57.2 °F 67% 29.85 in 10.0 mi NW 15.0 mph 19.6 mph N/A   Clear
11:13 AM 69.3 °F 57.6 °F 66% 29.86 in 10.0 mi NW 13.8 mph 19.6 mph N/A   Clear
11:34 AM 70.2 °F 58.1 °F 65% 29.87 in 10.0 mi WNW 12.7 mph 17.3 mph N/A   Clear
11:54 AM 69.6 °F 57.6 °F 65% 29.88 in 10.0 mi NW 12.7 mph 21.9 mph N/A   Scattered Clouds
12:14 PM 70.3 °F 58.3 °F 66% 29.88 in 10.0 mi WNW 11.5 mph - N/A   Scattered Clouds
12:34 PM 70.3 °F 57.9 °F 65% 29.88 in 10.0 mi WNW 15.0 mph 20.7 mph N/A   Clear
12:54 PM 71.4 °F 58.5 °F 64% 29.88 in 10.0 mi WNW 13.8 mph 19.6 mph N/A   Clear
1:14 PM 72.0 °F 58.3 °F 62% 29.89 in 10.0 mi West 12.7 mph 17.3 mph N/A   Clear
1:34 PM 71.8 °F 58.5 °F 63% 29.89 in 10.0 mi WNW 10.4 mph 18.4 mph N/A   Clear
1:54 PM 72.0 °F 58.5 °F 62% 29.90 in 10.0 mi West 8.1 mph 16.1 mph N/A   Clear
2:15 PM 72.5 °F 59.2 °F 63% 29.90 in 10.0 mi WNW 9.2 mph 17.3 mph N/A   Clear
2:35 PM 72.5 °F 58.3 °F 61% 29.91 in 10.0 mi WNW 9.2 mph - N/A   Clear
2:55 PM 72.9 °F 57.4 °F 58% 29.91 in 10.0 mi WNW 11.5 mph 21.9 mph N/A   Clear
3:15 PM 73.4 °F 56.8 °F 56% 29.90 in 10.0 mi NW 12.7 mph 19.6 mph N/A   Clear
3:35 PM 72.9 °F 54.5 °F 52% 29.90 in 10.0 mi NNW 10.4 mph 18.4 mph N/A   Clear
3:55 PM 74.3 °F 56.7 °F 54% 29.91 in 10.0 mi West 8.1 mph - N/A   Clear
4:15 PM 72.7 °F 56.5 °F 57% 29.91 in 10.0 mi WNW 9.2 mph - N/A   Clear
4:35 PM 72.9 °F 56.3 °F 56% 29.91 in 10.0 mi West 8.1 mph - N/A   Clear
4:55 PM 72.9 °F 58.3 °F 60% 29.91 in 10.0 mi WSW 8.1 mph - N/A   Scattered Clouds
5:15 PM 71.8 °F 57.2 °F 60% 29.92 in 10.0 mi WSW 4.6 mph - N/A   Scattered Clouds
5:36 PM 72.0 °F 57.4 °F 60% 29.91 in 10.0 mi West 5.8 mph - N/A   Clear
5:56 PM 71.4 °F 57.6 °F 62% 29.91 in 10.0 mi WSW 6.9 mph - N/A   Clear
6:16 PM 70.3 °F 58.5 °F 66% 29.91 in 10.0 mi WSW 5.8 mph - N/A   Clear
6:36 PM 70.0 °F 58.3 °F 66% 29.90 in 10.0 mi WSW 5.8 mph - N/A   Clear
6:56 PM 69.8 °F 58.3 °F 67% 29.91 in 10.0 mi WSW 6.9 mph - N/A   Scattered Clouds
7:16 PM 68.0 °F 58.5 °F 71% 29.92 in 10.0 mi WSW 3.5 mph - N/A   Mostly Cloudy
7:36 PM 68.0 °F 58.8 °F 72% 29.92 in 10.0 mi West 4.6 mph - N/A   Overcast
7:56 PM 67.8 °F 58.3 °F 71% 29.93 in 10.0 mi Calm Calm - N/A   Mostly Cloudy
8:16 PM 67.3 °F 59.2 °F 75% 29.93 in 10.0 mi WSW 3.5 mph - N/A   Scattered Clouds
8:37 PM 67.3 °F 58.8 °F 74% 29.93 in 10.0 mi Calm Calm - N/A   Mostly Cloudy
8:52 PM 66.6 °F 58.8 °F 76% 29.93 in 10.0 mi Calm Calm - N/A   Scattered Clouds
9:12 PM 65.3 °F 59.4 °F 81% 29.94 in 10.0 mi Calm Calm - N/A   Scattered Clouds
9:32 PM 64.2 °F 59.0 °F 83% 29.94 in 10.0 mi Calm Calm - N/A   Mostly Cloudy
9:52 PM 62.2 °F 58.1 °F 86% 29.95 in 10.0 mi Calm Calm - N/A   Scattered Clouds
10:12 PM 61.2 °F 58.1 °F 90% 29.96 in 10.0 mi Calm Calm - N/A   Clear
10:32 PM 60.1 °F 57.2 °F 90% 29.96 in 10.0 mi Calm Calm - N/A   Clear
10:52 PM 59.7 °F 56.8 °F 90% 29.97 in 10.0 mi Calm Calm - N/A   Clear
11:12 PM 59.4 °F 56.3 °F 90% 29.98 in 10.0 mi Calm Calm - N/A   Clear
11:33 PM 58.6 °F 56.3 °F 92% 29.98 in 10.0 mi Calm Calm - N/A   Clear
11:53 PM 57.4 °F 55.2 °F 92% 29.98 in 7.0 mi Calm Calm - N/A   Clear